This demonstration page uses our WeatherBlox Daily Observations layout. Learn more.

Left ArrowRight Arrow

39.92423, -83.80882

Hourly Observations for June 14, 2015

Temp ( °F °C ) Dew Point ( °F °C ) Humidity (%) Winds ( mph kmh ) Pressure ( in mb ) Visibility ( mi km ) Precip ( " mm )
12:56 am 00:56 Mostly Clear 72 22.2 71 21.6 96 96 S 6 9 30.04 1017 9 14.48406 0 0
1:56 am 01:56 Clear 73 22.7 72 22.2 97 97 SSW 7 11 30.04 1017 8 12.87472 0 0
2:56 am 02:56 Clear 73 22.7 72 22.2 97 97 SW 5 7 30.03 1017 8 12.87472 0 0
3:56 am 03:56 Mostly Clear 73 22.7 71 21.6 94 94 SW 5 7 30.03 1017 8 12.87472 0 0
4:56 am 04:56 Partly Cloudy 73 22.7 71 21.6 94 94 S 3 6 30.02 1017 8 12.87472 0 0
5:56 am 05:56 Partly Cloudy 73 22.7 72 22.2 97 97 S 5 7 30.03 1017 8 12.87472 0 0
6:56 am 06:56 Mostly Sunny 74 23.3 72 22.2 94 94 SSW 5 7 30.04 1017 7 11.26538 0 0
7:56 am 07:56 Partly Cloudy 75 23.8 73 22.7 94 94 SSW 6 9 30.06 1018 7 11.26538 0 0
8:56 am 08:56 Mostly Sunny 78 25.5 73 22.7 85 85 SSW 8 13 30.06 1018 7 11.26538 0 0
9:56 am 09:56 Hazy 80 26.6 74 23.3 82 82 SW 9 15 30.06 1018 6 9.65604 0 0
10:56 am 10:56 Sunny 82 27.7 73 22.7 74 74 SSW 12 19 30.06 1018 7 11.26538 0 0
11:56 am 11:56 Sunny 84 28.8 72 22.2 68 68 SW 13 20 30.05 1018 8 12.87472 0 0
12:56 pm 12:56 Partly Cloudy 87 30.5 72 22.2 61 61 SW 15 24 30.04 1017 8 12.87472 0 0
1:56 pm 13:56 Mostly Sunny 88 31.1 72 22.2 59 59 SSW 12 19 30.03 1017 7 11.26538 0 0
2:56 pm 14:56 Mostly Sunny 88 31.1 72 22.2 59 59 SW 16 26 30.01 1016 8 12.87472 0 0
3:56 pm 15:56 Partly Cloudy 90 32.2 71 21.6 54 54 SW 16 26 29.98 1015 8 12.87472 0 0
4:56 pm 16:56 Mostly Sunny 91 32.7 71 21.6 52 52 WSW 16 26 29.98 1015 8 12.87472 0 0
5:56 pm 17:56 Mostly Cloudy 87 30.5 70 21.1 57 57 SW 17 28 29.97 1015 8 12.87472 0 0
6:56 pm 18:56 Mostly Sunny 86 30 71 21.6 61 61 SW 14 22 29.96 1015 8 12.87472 0 0.0254
7:56 pm 19:56 Sunny 85 29.4 70 21.1 61 61 SW 9 15 29.97 1015 8 12.87472 0 0
8:56 pm 20:56 Sunny 82 27.7 70 21.1 67 67 WSW 9 15 29.98 1015 8 12.87472 0 0
9:56 pm 21:56 Mostly Cloudy 81 27.2 71 21.6 72 72 WSW 7 11 29.99 1016 9 14.48406 0 0
10:31 pm 22:31 Cloudy with Nearby Thunderstorms 81 27 72 22 74 74 SW 8 13 29.97 1015 9 14.48406 0 0
10:56 pm 22:56 Cloudy with Nearby Thunderstorms 76 24.4 74 23.3 94 94 NNW 8 13 30.02 1017 3 4.82802 0.01 0.254
11:09 pm 23:09 Mostly Cloudy with Light Rain 73 23 73 23 100 100 WNW 6 9 30.03 1017 3 4.82802 0.02 0.508
11:56 pm 23:56 Clear 74 23.3 74 23.3 100 100 SSW 3 6 30.02 1017 7 11.26538 0.02 0.508

Powered by AerisWeather